Location: Huntsville
(34.7300°N, 86.5860°W)
Time: 14:02:10
(UTC-05:00)

Tiangong - Visible Passes

Search period start: 23 July 2024 00:00
Search period end: 02 August 2024 00:00
Orbit: 388 x 393 km, 41.5° (Epoch: 23 July)

Date Brightness Start Highest point End Pass type
(mag) Time Alt. Az. Time Alt. Az. Time Alt. Az.
23 Jul 0.4 03:20:44 19° E 03:20:44 19° E 03:21:54 10° E visible
23 Jul -1.3 04:53:11 12° W 04:55:42 31° SSW 04:58:35 10° SSE visible
24 Jul -0.2 03:59:57 21° SE 03:59:57 21° SE 04:01:10 10° SE visible
24 Jul -0.2 20:29:48 10° S 20:31:33 14° SE 20:33:13 10° ESE visible
24 Jul 0.4 22:05:00 10° WSW 22:05:39 15° WSW 22:05:39 15° WSW visible
25 Jul -2.1 21:07:14 10° SW 21:10:22 54° SSE 21:12:00 24° E visible
26 Jul -1.1 21:46:18 10° W 21:49:24 46° NNW 21:50:09 37° NNE visible
27 Jul -2.0 20:48:13 10° WSW 20:51:24 75° NNW 20:54:36 10° ENE visible
27 Jul 0.4 22:25:56 10° WNW 22:27:48 22° NW 22:27:48 22° NW visible
28 Jul -0.3 21:27:36 10° WNW 21:30:30 31° NNW 21:32:47 14° NE visible
29 Jul -0.9 20:29:16 10° W 20:32:19 42° NNW 20:35:24 10° NE visible
29 Jul 0.1 22:07:06 10° WNW 22:09:44 23° N 22:09:49 23° N visible
30 Jul 0.0 21:08:44 10° WNW 21:11:27 25° N 21:14:09 10° NE visible
30 Jul 1.2 22:46:07 10° NW 22:46:41 14° NW 22:46:41 14° NW visible
31 Jul -0.1 21:47:56 10° NW 21:50:36 24° N 21:51:07 23° NNE visible
01 Aug 0.1 20:49:35 10° NW 20:52:13 23° N 20:54:50 10° NE visible
01 Aug 0.7 22:26:37 10° NW 22:27:45 19° NW 22:27:45 19° NW visible
